Flag for U.S.A. Weather past 2 weeks in New Bedford, Massachusetts, U.S.A.

Now
74 °F

Partly sunny.


Feels Like: 75 °F
Forecast: 62 / 75 °F
Wind: 9 mph from Northeast

Location: New Bedford Regional Airport

Current Time: Jul 24, 2014 at 1:51:59 PM

Latest Report: Jul 24, 2014 at 12:53 PM


Visibility: 10 mi

Pressure: 29.82 "Hg

Humidity: 74%

Dew point: 65 °F

Location of New BedfordLocation

Historic Weather in New Bedford — Graph

°F

New Bedford temperature yesterday

Maximum temperature yesterday: 83 °F (at 12:53 PM)
Minimum temperature yesterday: 72 °F (at 8:53 PM)
Average temperature yesterday: 77 °F

Past Weeks' High & Low Weather Summary

 TemperatureHumidityPressure
High85 °F (Jul 22, 12:53 PM)100% (Jul 12, 5:53 AM)30.27 "Hg (Jul 12, 5:53 AM)
Low58 °F (Jul 12, 4:53 AM)43% (Jul 12, 11:53 AM)29.74 "Hg (Jul 24, 2:53 AM)
Average72 °F80%30.03 "Hg
* Reported Jul 9 12:53 PM — Jul 24 12:04 PM, New Bedford, Weather by CustomWeather, © 2014

Note: Actual official high and low records may vary slightly from our data, if they occured in-between our weather recording intervals... More about our weather records

Advertising

New Bedford weather history for previous 24 hours

 ConditionsComfort  
Time TempWeatherWind HumidityBarometerVisibility
12:04 PM
Jul 24
72 °FMostly cloudy.12 mph78%29.82 "Hg10 mi
12:00 PM72 °FMostly cloudy.9 mph78%29.82 "Hg1 mi
10:53 AMN/AMostly cloudy.6 mphN/A29.80 "HgN/A
9:53 AM77 °FMostly cloudy.No wind79%29.79 "Hg10 mi
8:53 AM77 °FPassing clouds.8 mph79%29.77 "Hg10 mi
7:53 AM75 °FSunny.5 mph85%29.76 "Hg10 mi
6:53 AM71 °FPartly sunny.No wind93%29.77 "Hg10 mi
5:53 AM70 °FPassing clouds.No wind93%29.75 "Hg10 mi
4:53 AM70 °FMostly cloudy.No wind93%29.75 "Hg10 mi
3:53 AM70 °FClear.3 mph93%29.75 "Hg10 mi
2:53 AM70 °FClear.No wind93%29.74 "Hg8 mi
1:53 AM71 °FClear.7 mph93%29.75 "Hg10 mi
12:53 AM71 °FClear.5 mph93%29.75 "Hg10 mi
11:53 PM
Jul 23
73 °FPassing clouds.9 mph88%29.79 "Hg10 mi
10:53 PM72 °FPassing clouds.9 mph91%29.81 "Hg10 mi
9:53 PM72 °FClear.12 mph87%29.83 "Hg10 mi
8:53 PM72 °FSunny.10 mph84%29.82 "Hg10 mi
7:53 PM74 °FSunny.10 mph76%29.81 "Hg10 mi
6:53 PM76 °FSunny.17 mph69%29.81 "Hg10 mi
5:53 PM78 °FSunny.15 mph66%29.80 "Hg10 mi
4:53 PM80 °FSunny.21 mph60%29.81 "Hg10 mi
3:53 PM80 °FSunny.18 mph69%29.83 "Hg10 mi
2:53 PM82 °FSunny.16 mph70%29.85 "Hg10 mi
1:53 PM83 °FSunny.15 mph68%29.86 "Hg10 mi
Weather by CustomWeather, © 2014

See weather overviewHow to use our weather pages